Find SES-14

NORAD ID: 43175 Int'l Des: 2018-012 Owner: SESSA Country: L operational
HEOCIRCULARGSOGEO

リアルタイム位置

3D地球を読み込み中...

SES-14について

説明を読み込み中...

次回通過

Passes for default location (London). Set your location on the main map for personalized predictions.

高度履歴

Loading altitude history...

軌道要素

1 43175U 18012B 26106.78761690 -.00000272 00000-0 00000+0 0 9992
2 43175 0.0053 304.7532 0000774 70.4995 65.7397 1.00271949 6406
Epoch: Apr 16, 2026 • Age: 7 hours

現在のステータス

高度 35789.4 km
速度 3.07 km/s
衛星直下点 -0.01°S, 47.49°W
打ち上げ日 Jan 25, 2018
運用期間 8.2 years
タイプ communications

技術仕様

分類 Payload
質量 4423.00 kg
乾燥質量 2800.00 kg
総質量 4423.00 kg
長さ 5.40 m
直径 3.00 m
スパン 39.30 m
形状 Box + 2 Pan
製造者 ADST
バスタイプ Eurostar 3000e
フェーズステータス Renamed
所有者/国 SESSA/L

Most Searched